(201184) = 2002 PW52

Discovered at Palomar on 2002-08-08 by NEAT.

Orbit

Orbit type: Main Belt

Note: WebGL enabled browser required.

epoch2024-03-31.0
epoch JD2460400.5
perihelion date2023-07-08.53878
perihelion JD2460134.03878
argument of perihelion (°)217.66835
ascending node (°)124.49627
inclination (°)11.51420
eccentricity0.1090525
perihelion distance (AU)2.6621649
Tisserand w.r.t. Jupiter3.2
ΔV w.r.t. Earth (km/sec)10.8
semimajor axis (AU)2.9880155
mean anomaly (°)50.84680
mean daily motion (°/day)0.19082250
aphelion distance (AU)3.314
period (years)5.17
P-vector [x]0.94180488
P-vector [y]-0.23887862
P-vector [z]-0.23651760
Q-vector [x]0.29315423
Q-vector [y]0.92796126
Q-vector [z]0.23010540
absolute magnitude15.62
phase slope0.15
uncertainty0
referenceMPEC 2024-C93
observations used601
oppositions17
arc length (days)7835
first opposition used2002
last opposition used2024
residual rms (arc-secs)0.72
perturbers coarse indicatorM-v
perturbers precise indicator003Ek
first observation date used2002-07-29.0
last observation date used2024-01-10.0
computer nameMPCLINUX
JD of orbit computation2456639.635263
perihelion JD uncertainty (days)1.1136E-04
argument of perihelion uncertainty (°)3.3065E-05
ascending node uncertainty (°)2.4066E-05
inclination uncertainty (°)2.8173E-06
eccentricity uncertainty 5.3628E-08
perihelion distance uncertainty (AU)1.4434E-07
Minimum Orbit Intersection Distances (in AU)
for orbit epoch: 2460200.5, reference: E2024-C93
Mercury2.26444
Venus1.93636
Earth1.66202
Mars1.28954
Jupiter2.04878
Saturn5.90505
Uranus15.1623
Neptune27.0047

Observations

619 total observations over interval: 2002 07 29.30417 – 2024 01 10.07534
These data are available for download (format description).

Date (UT) J2000 RA J2000 Dec Magn Location Ref
2002 07 29.30417 21 49 12.89 -17 17 30.2 19.8 R 644 – Palomar Mountain/NEAT MPS 120466
2002 08 08.38382 21 42 28.77 -18 42 51.9 19.2   644 – Palomar Mountain/NEAT MPS 60195
2002 08 08.39360 21 42 28.33 -18 42 57.0 19.1   644 – Palomar Mountain/NEAT MPS 60195
2002 08 08.40571 21 42 27.80 -18 43 03.4 20.4   644 – Palomar Mountain/NEAT MPS 60195
2002 08 11.43136 21 40 14.96 -19 08 39.9 19.5   644 – Palomar Mountain/NEAT MPS 60195
2002 08 11.44215 21 40 14.47 -19 08 45.1 19.7   644 – Palomar Mountain/NEAT MPS 60195
2002 08 11.45288 21 40 14.00 -19 08 50.4 19.5   644 – Palomar Mountain/NEAT MPS 60195
2002 08 12.12272 21 39 44.56 -19 14 23.3 17.2 R 807 – Cerro Tololo Observatory, La Serena MPS 63310
2002 08 12.21905 21 39 40.09 -19 15 12.1   807 – Cerro Tololo Observatory, La Serena MPS 63310
2002 08 16.23266 21 36 40.42 -19 48 24.0 18.8   644 – Palomar Mountain/NEAT MPS 61328
2002 08 16.30751 21 36 36.91 -19 49 00.5 18.7   644 – Palomar Mountain/NEAT MPS 61328
2002 08 16.37026 21 36 34.00 -19 49 31.1 18.6   644 – Palomar Mountain/NEAT MPS 61328
2002 08 18.36898 21 35 04.29 -20 05 34.7 19.3   644 – Palomar Mountain/NEAT MPS 61328
2002 08 18.37955 21 35 03.80 -20 05 39.4 19.6   644 – Palomar Mountain/NEAT MPS 61328
2002 08 18.39492 21 35 03.08 -20 05 46.7 19.2   644 – Palomar Mountain/NEAT MPS 61328
2002 08 30.31656 21 26 37.03 -21 32 09.4 19.3   644 – Palomar Mountain/NEAT MPS 82885
2002 08 30.33963 21 26 36.08 -21 32 18.5 19.8   644 – Palomar Mountain/NEAT MPS 82885
2002 08 30.37015 21 26 34.91 -21 32 29.5 19.7   644 – Palomar Mountain/NEAT MPS 82885
2002 09 15.13337 21 18 34.98 -22 52 53.1 18.9 R 644 – Palomar Mountain/NEAT MPS 120466
2002 09 15.15431 21 18 34.51 -22 52 57.4 18.9 R 644 – Palomar Mountain/NEAT MPS 120466
2002 09 15.17569 21 18 34.06 -22 53 02.3 19.2 R 644 – Palomar Mountain/NEAT MPS 120466
2003 11 30.26472 04 34 55.27 +07 18 51.9 19.6   704 – Lincoln Laboratory ETS, New Mexico MPS 126753
2003 11 30.29036 04 34 53.85 +07 18 53.2 19.5   704 – Lincoln Laboratory ETS, New Mexico MPS 126753
2003 11 30.30318 04 34 53.15 +07 18 53.1 20.1   704 – Lincoln Laboratory ETS, New Mexico MPS 126753
2003 11 30.31616 04 34 52.48 +07 18 52.9 19.7   704 – Lincoln Laboratory ETS, New Mexico MPS 126753
2004 12 20.39917 10 08 20.31 +13 53 04.3 20.2 R G96 – Mt. Lemmon Survey MPS 126360
2004 12 20.41272 10 08 20.35 +13 53 06.4 20.9 R G96 – Mt. Lemmon Survey MPS 126360
2004 12 20.42637 10 08 20.37 +13 53 09.0 20.2 R G96 – Mt. Lemmon Survey MPS 126360
2004 12 20.43999 10 08 20.40 +13 53 11.4 20.4 R G96 – Mt. Lemmon Survey MPS 126360
2005 02 02.24101 09 51 03.92 +17 49 17.7 20.7 V 691 – Steward Observatory, Kitt Peak-Spacewatch MPS 126360
2005 02 02.26664 09 51 02.72 +17 49 28.6 20.5 V 691 – Steward Observatory, Kitt Peak-Spacewatch MPS 126360
2005 02 02.29265 09 51 01.54 +17 49 39.2 20.6 V 691 – Steward Observatory, Kitt Peak-Spacewatch MPS 126360
2005 02 03.37419 09 50 12.56 +17 57 04.8 20.0   704 – Lincoln Laboratory ETS, New Mexico MPS 126360
2005 02 03.39983 09 50 11.29 +17 57 17.3 19.6   704 – Lincoln Laboratory ETS, New Mexico MPS 126360
2005 02 03.41334 09 50 10.71 +17 57 22.7 19.9   704 – Lincoln Laboratory ETS, New Mexico MPS 126360
2006 05 01.23903 14 12 17.35 +04 28 41.3 19.9 V 703 – Catalina Sky Survey MPS 170794
2006 05 01.24656 14 12 17.06 +04 28 43.5 19.6 V 703 – Catalina Sky Survey MPS 170794
2006 05 01.25407 14 12 16.74 +04 28 44.7 20.1 V 703 – Catalina Sky Survey MPS 170794
2006 05 01.26157 14 12 16.38 +04 28 46.9 19.9 V 703 – Catalina Sky Survey MPS 170794
2006 05 23.93549 13 57 17.76 +04 58 24.4   621 – Bergisch Gladbach MPS 172789
2006 05 23.93804 13 57 17.63 +04 58 24.7   621 – Bergisch Gladbach MPS 172789
2006 05 23.95589 13 57 17.09 +04 58 23.7 20 R 621 – Bergisch Gladbach MPS 172789
2007 06 21.37031 20 42 40.89 -15 19 14.3 20.0 V G96 – Mt. Lemmon Survey MPS 211040
2007 06 21.37691 20 42 40.78 -15 19 16.1 20.0 V G96 – Mt. Lemmon Survey MPS 211040
2007 06 21.38356 20 42 40.64 -15 19 17.8 19.9 V G96 – Mt. Lemmon Survey MPS 211040
2007 06 21.39029 20 42 40.53 -15 19 19.5 20.0 V G96 – Mt. Lemmon Survey MPS 211040
2007 06 22.40335 20 42 23.94 -15 23 43.6 20.0 V 691 – Steward Observatory, Kitt Peak-Spacewatch MPS 211040
2007 06 22.42095 20 42 23.61 -15 23 48.7 19.8 V 691 – Steward Observatory, Kitt Peak-Spacewatch MPS 211040
2007 06 22.43856 20 42 23.29 -15 23 52.9 19.9 V 691 – Steward Observatory, Kitt Peak-Spacewatch MPS 211040
2007 06 26.40205 20 41 04.75 -15 42 28.2   691 – Steward Observatory, Kitt Peak-Spacewatch MPS 211369
2007 06 26.41967 20 41 04.34 -15 42 33.4   691 – Steward Observatory, Kitt Peak-Spacewatch MPS 211369
2007 06 26.43730 20 41 03.83 -15 42 38.3   691 – Steward Observatory, Kitt Peak-Spacewatch MPS 211369
2008 11 06.35775 03 45 31.57 +02 39 27.9 19.8 V 703 – Catalina Sky Survey MPS 263083
2008 11 06.36755 03 45 31.10 +02 39 26.1 19.4 V 703 – Catalina Sky Survey MPS 263083
2008 11 06.37748 03 45 30.56 +02 39 25.5 20.3 V 703 – Catalina Sky Survey MPS 263083
2008 11 06.38741 03 45 30.06 +02 39 22.6 19.8 V 703 – Catalina Sky Survey MPS 263083
2008 11 19.22274 03 34 42.74 +02 14 12.5 19.9 V 703 – Catalina Sky Survey MPS 265169
2008 11 19.23192 03 34 42.34 +02 14 12.4 20.2 V 703 – Catalina Sky Survey MPS 265169
2008 11 19.24091 03 34 41.91 +02 14 11.5 19.6 V 703 – Catalina Sky Survey MPS 265169
2008 11 19.24983 03 34 41.37 +02 14 10.8 19.7 V 703 – Catalina Sky Survey MPS 265169
2008 11 27.98029 03 27 28.53 +02 11 14.6 19.9 V J75 – OAM Observatory, La Sagra MPS 267425
2008 11 27.99366 03 27 27.90 +02 11 15.3 19.6 V J75 – OAM Observatory, La Sagra MPS 267425
2008 11 28.00696 03 27 27.23 +02 11 15.2 19.7 V J75 – OAM Observatory, La Sagra MPS 267425
2009 12 17.46064 09 22 38.67 +15 14 20.0 20.9 V G96 – Mt. Lemmon Survey MPS 308484
2009 12 17.46778 09 22 38.60 +15 14 21.4 20.9 V G96 – Mt. Lemmon Survey MPS 308484
2009 12 17.47498 09 22 38.53 +15 14 22.9 20.9 V G96 – Mt. Lemmon Survey MPS 308484
2009 12 17.48197 09 22 38.46 +15 14 24.1 20.8 V G96 – Mt. Lemmon Survey MPS 308484
2010 01 06.34628 09 15 39.53 +16 41 14.8 20.3 V 691 – Steward Observatory, Kitt Peak-Spacewatch MPS 310072
2010 01 06.36398 09 15 38.92 +16 41 20.5 20.3 V 691 – Steward Observatory, Kitt Peak-Spacewatch MPS 310072
2010 01 06.38168 09 15 38.31 +16 41 26.2 20.2 V 691 – Steward Observatory, Kitt Peak-Spacewatch MPS 310072
2010 01 10.28851 09 13 20.11 +17 03 15.4   691 – Steward Observatory, Kitt Peak-Spacewatch MPS 311100
2010 01 10.30624 09 13 19.43 +17 03 21.5   691 – Steward Observatory, Kitt Peak-Spacewatch MPS 311100
2010 01 10.32396 09 13 18.75 +17 03 27.8   691 – Steward Observatory, Kitt Peak-Spacewatch MPS 311100
2010 02 05.22836 08 53 29.00 +19 42 49.0 19.1 V 703 – Catalina Sky Survey MPS 316486
2010 02 05.23413 08 53 28.78 +19 42 52.7 20.3 V 703 – Catalina Sky Survey MPS 316486
2010 02 05.23988 08 53 28.46 +19 42 55.5 20.7 V 703 – Catalina Sky Survey MPS 316486
2010 02 05.24567 08 53 28.17 +19 42 56.9 20.0 V 703 – Catalina Sky Survey MPS 316486
2010 02 10.90728 08 48 53.94 +20 16 01.6 19.9 C 114 – Engelhardt Observatory, Zelenchukskaya Station MPS 316486
2010 02 10.91123 08 48 53.79 +20 16 03.3 20.1 C 114 – Engelhardt Observatory, Zelenchukskaya Station MPS 316486
2010 02 10.91510 08 48 53.59 +20 16 05.1 20.0 C 114 – Engelhardt Observatory, Zelenchukskaya Station MPS 316486
2010 02 10.91904 08 48 53.39 +20 16 05.5 19.9 C 114 – Engelhardt Observatory, Zelenchukskaya Station MPS 316486
2010 02 10.92296 08 48 53.28 +20 16 07.0 20.3 C 114 – Engelhardt Observatory, Zelenchukskaya Station MPS 316486
2010 02 17.30179 08 44 02.79 +20 50 33.2 20.4 V G96 – Mt. Lemmon Survey MPS 316486
2010 02 17.30772 08 44 02.50 +20 50 35.2 20.0 V G96 – Mt. Lemmon Survey MPS 316486
2010 02 17.31373 08 44 02.25 +20 50 36.9 20.3 V G96 – Mt. Lemmon Survey MPS 316486
2010 02 17.31970 08 44 01.96 +20 50 38.8 20.3 V G96 – Mt. Lemmon Survey MPS 316486
2010 04 19.609675 08 36 44.138 +22 46 58.40   C51 – WISE MPS 903448
2010 04 19.874282 08 36 52.11 +22 46 42.8   C51 – WISE MPS 326200
2010 04 19.940499 08 36 54.17 +22 46 41.3   C51 – WISE MPS 326200
2010 04 20.006587 08 36 56.32 +22 46 34.6   C51 – WISE MPS 326200
2010 04 20.072803 08 36 58.39 +22 46 31.6   C51 – WISE MPS 326200
